Gunnison, CO

12:08 AM MST on November 18, 2019 (GMT -0700)
Gunnison County

Weather History for KGUC - July, 2019

Change the Weather History Date:

Friday, July 19, 2019

  Actual Average Record
Temperature  
Mean Temperature 63 °F -  
Max Temperature 84 °F 77 °F 87 °F (2002)
Min Temperature 42 °F 45 °F 41 °F (2000)
Degree Days  
Heating Degree Days 2    
Growing Degree Days 13 (Base 50)    
Moisture  
Dew Point 37 °F    
Average Humidity 41    
Maximum Humidity 76    
Minimum Humidity 14    
Precipitation  
Precipitation 0.00 in - - ()
Sea Level Pressure  
Sea Level Pressure 29.98 in    
Wind  
Wind Speed 3 mph (West)    
Max Wind Speed 12 mph    
Max Gust Speed 21 mph    
Visibility 10 miles    
Events      
Averages and records for this station are not official NWS values.
T = Trace of Precipitation, MM = Missing Value Source: NWS Daily Summary

Daily Weather History Graph

Daily Weather History Graph

Search for Another Location

Airport or City:

Astronomy

Jul. 19, 2019 Rise Set
Actual Time 5:58 AM MDT 8:29 PM MDT
Civil Twilight 5:28 AM MDT 8:59 PM MDT
Nautical Twilight 4:50 AM MDT 9:37 PM MDT
Astronomical Twilight 4:07 AM MDT 10:19 PM MDT
Moon 10:30 PM MDT (7/19) 8:26 AM MDT (7/19)
Length of Visible Light 15h 31m
Length of Day
14h 30m
Waning Gibbous, 93% of the Moon is Illuminated
Jul 19
Waning Gibbous
Jul 24
Last Quarter
Jul 31
New
Aug 7
First Quarter
Aug 15
Full

Hourly Weather History & Observations

Time (MDT) Temp. Windchill Dew Point Humidity Pressure Visibility Wind Dir Wind Speed Gust Speed Precip Events Conditions
12:56 AM 53.1 °F - 39.0 °F 59% 29.99 in 10.0 mi Calm Calm - N/A   Clear
1:56 AM 51.1 °F - 36.0 °F 56% 29.99 in 10.0 mi East 3.5 mph - N/A   Clear
2:56 AM 46.9 °F - 39.0 °F 74% 30.00 in 10.0 mi Calm Calm - N/A   Clear
3:56 AM 45.0 °F 43.5 °F 36.0 °F 71% 30.01 in 10.0 mi East 3.5 mph - N/A   Clear
4:56 AM 44.1 °F - 37.0 °F 76% 30.04 in 10.0 mi Calm Calm - N/A   Clear
5:56 AM 42.1 °F - 34.0 °F 73% 30.06 in 10.0 mi Calm Calm - N/A   Clear
6:56 AM 44.1 °F - 35.1 °F 71% 30.08 in 10.0 mi Calm Calm - N/A   Clear
7:56 AM 48.9 °F - 36.0 °F 61% 30.09 in 10.0 mi Calm Calm - N/A   Clear
8:56 AM 57.9 °F - 35.1 °F 42% 30.08 in 10.0 mi Calm Calm - N/A   Clear
9:56 AM 62.1 °F - 35.1 °F 37% 30.06 in 10.0 mi SE 4.6 mph - N/A   Clear
10:56 AM 70.0 °F - 37.0 °F 30% 30.03 in 10.0 mi SE 4.6 mph - N/A   Clear
11:56 AM 75.0 °F - 37.9 °F 26% 30.00 in 10.0 mi Variable 4.6 mph - N/A   Clear
12:56 PM 81.0 °F - 37.0 °F 21% 29.96 in 10.0 mi WSW 9.2 mph 16.1 mph N/A   Clear
1:56 PM 82.9 °F - 37.0 °F 19% 29.94 in 10.0 mi SW 11.5 mph 18.4 mph N/A   Clear
2:56 PM 84.0 °F - 35.1 °F 17% 29.93 in 10.0 mi SW 11.5 mph 18.4 mph N/A   Clear
3:56 PM 84.9 °F - 30.0 °F 14% 29.93 in 10.0 mi WNW 8.1 mph - N/A   Clear
4:56 PM 84.0 °F - 32.0 °F 15% 29.93 in 10.0 mi NW 11.5 mph 20.7 mph N/A   Clear
5:56 PM 82.9 °F - 36.0 °F 19% 29.92 in 10.0 mi WSW 10.4 mph - N/A   Clear
6:56 PM 82.9 °F - 36.0 °F 19% 29.91 in 10.0 mi WSW 9.2 mph - N/A   Clear
7:56 PM 79.0 °F - 39.0 °F 24% 29.91 in 10.0 mi Calm Calm - N/A   Clear
8:56 PM 71.1 °F - 39.0 °F 31% 29.92 in 10.0 mi Variable 4.6 mph - N/A   Clear
9:56 PM 66.0 °F - 43.0 °F 43% 29.96 in 10.0 mi NNE 4.6 mph - N/A   Clear
10:56 PM 62.1 °F - 42.1 °F 48% 29.95 in 10.0 mi NNE 5.8 mph - N/A   Clear
11:56 PM 60.1 °F - 39.0 °F 46% 29.94 in 10.0 mi NNW 6.9 mph - N/A   Clear